#datetime,building,power
2023-05-28T00:00:00,axn,26.61
2023-05-28T00:01:00,axn,27.27
2023-05-28T00:02:00,axn,27.29
2023-05-28T00:03:00,axn,27.80
2023-05-28T00:04:00,axn,27.60
2023-05-28T00:05:00,axn,27.57
2023-05-28T00:06:00,axn,27.32
2023-05-28T00:07:00,axn,27.40
2023-05-28T00:08:00,axn,27.74
2023-05-28T00:09:00,axn,27.53
2023-05-28T00:10:00,axn,27.22
2023-05-28T00:11:00,axn,27.17
2023-05-28T00:12:00,axn,27.22
2023-05-28T00:13:00,axn,27.19
2023-05-28T00:14:00,axn,27.67
2023-05-28T00:15:00,axn,27.18
2023-05-28T00:16:00,axn,27.44
2023-05-28T00:17:00,axn,27.19
2023-05-28T00:18:00,axn,27.18
2023-05-28T00:19:00,axn,26.98
2023-05-28T00:20:00,axn,27.00
2023-05-28T00:21:00,axn,26.93
2023-05-28T00:22:00,axn,27.02
2023-05-28T00:23:00,axn,27.34
2023-05-28T00:24:00,axn,27.18
2023-05-28T00:25:00,axn,27.20
2023-05-28T00:26:00,axn,27.25
2023-05-28T00:27:00,axn,27.93
2023-05-28T00:28:00,axn,27.35
2023-05-28T00:29:00,axn,27.35
2023-05-28T00:30:00,axn,27.47
2023-05-28T00:31:00,axn,27.68
2023-05-28T00:32:00,axn,27.61
2023-05-28T00:33:00,axn,27.85
2023-05-28T00:34:00,axn,27.61
2023-05-28T00:35:00,axn,27.23
2023-05-28T00:36:00,axn,27.19
2023-05-28T00:37:00,axn,27.15
2023-05-28T00:38:00,axn,27.52
2023-05-28T00:39:00,axn,27.19
2023-05-28T00:40:00,axn,27.11
2023-05-28T00:41:00,axn,27.11
2023-05-28T00:42:00,axn,27.24
2023-05-28T00:43:00,axn,27.02
2023-05-28T00:44:00,axn,27.16
2023-05-28T00:45:00,axn,26.74
2023-05-28T00:46:00,axn,26.66
2023-05-28T00:47:00,axn,27.08
2023-05-28T00:48:00,axn,26.63
2023-05-28T00:49:00,axn,26.77
2023-05-28T00:50:00,axn,26.65
2023-05-28T00:51:00,axn,26.66
2023-05-28T00:52:00,axn,26.51
2023-05-28T00:53:00,axn,26.40
2023-05-28T00:54:00,axn,26.27
2023-05-28T00:55:00,axn,26.22
2023-05-28T00:56:00,axn,26.46
2023-05-28T00:57:00,axn,26.41
2023-05-28T00:58:00,axn,26.27
2023-05-28T00:59:00,axn,26.23
2023-05-28T01:00:00,axn,26.24
2023-05-28T01:01:00,axn,26.43
2023-05-28T01:02:00,axn,26.15
2023-05-28T01:03:00,axn,26.37
2023-05-28T01:04:00,axn,26.53
2023-05-28T01:05:00,axn,26.30
2023-05-28T01:06:00,axn,26.33
2023-05-28T01:07:00,axn,26.61
2023-05-28T01:08:00,axn,26.44
2023-05-28T01:09:00,axn,26.44
2023-05-28T01:10:00,axn,26.43
2023-05-28T01:11:00,axn,26.50
2023-05-28T01:12:00,axn,26.67
2023-05-28T01:13:00,axn,26.66
2023-05-28T01:14:00,axn,26.74
2023-05-28T01:15:00,axn,26.76
2023-05-28T01:16:00,axn,26.97
2023-05-28T01:17:00,axn,26.78
2023-05-28T01:18:00,axn,26.61
2023-05-28T01:19:00,axn,26.44
2023-05-28T01:20:00,axn,27.34
2023-05-28T01:21:00,axn,26.50
2023-05-28T01:22:00,axn,26.73
2023-05-28T01:23:00,axn,26.87
2023-05-28T01:24:00,axn,26.61
2023-05-28T01:25:00,axn,26.62
2023-05-28T01:26:00,axn,26.66
2023-05-28T01:27:00,axn,26.67
2023-05-28T01:28:00,axn,26.48
2023-05-28T01:29:00,axn,26.54
2023-05-28T01:30:00,axn,26.53
2023-05-28T01:31:00,axn,26.48
2023-05-28T01:32:00,axn,26.78
2023-05-28T01:33:00,axn,26.91
2023-05-28T01:34:00,axn,26.96
2023-05-28T01:35:00,axn,26.38
2023-05-28T01:36:00,axn,26.51
2023-05-28T01:37:00,axn,26.84
2023-05-28T01:38:00,axn,26.98
2023-05-28T01:39:00,axn,26.67
2023-05-28T01:40:00,axn,26.62
2023-05-28T01:41:00,axn,26.60
2023-05-28T01:42:00,axn,26.59
2023-05-28T01:43:00,axn,26.63
2023-05-28T01:44:00,axn,26.85
2023-05-28T01:45:00,axn,26.61
2023-05-28T01:46:00,axn,26.51
2023-05-28T01:47:00,axn,26.59
2023-05-28T01:48:00,axn,26.59
2023-05-28T01:49:00,axn,26.79
2023-05-28T01:50:00,axn,26.88
2023-05-28T01:51:00,axn,26.97
2023-05-28T01:52:00,axn,27.04
2023-05-28T01:53:00,axn,27.32
2023-05-28T01:54:00,axn,26.84
2023-05-28T01:55:00,axn,26.99
2023-05-28T01:56:00,axn,26.85
2023-05-28T01:57:00,axn,26.92
2023-05-28T01:58:00,axn,26.92
2023-05-28T01:59:00,axn,26.77
2023-05-28T02:00:00,axn,27.00
2023-05-28T02:01:00,axn,27.13
2023-05-28T02:02:00,axn,26.86
2023-05-28T02:03:00,axn,27.12
2023-05-28T02:04:00,axn,27.17
2023-05-28T02:05:00,axn,27.42
2023-05-28T02:06:00,axn,27.13
2023-05-28T02:07:00,axn,27.23
2023-05-28T02:08:00,axn,27.23
2023-05-28T02:09:00,axn,27.45
2023-05-28T02:10:00,axn,27.39
2023-05-28T02:11:00,axn,26.67
2023-05-28T02:12:00,axn,26.66
2023-05-28T02:13:00,axn,26.92
2023-05-28T02:14:00,axn,26.73
2023-05-28T02:15:00,axn,27.02
2023-05-28T02:16:00,axn,26.97
2023-05-28T02:17:00,axn,27.50
2023-05-28T02:18:00,axn,27.19
2023-05-28T02:19:00,axn,27.04
2023-05-28T02:20:00,axn,27.11
2023-05-28T02:21:00,axn,27.11
2023-05-28T02:22:00,axn,27.04
2023-05-28T02:23:00,axn,26.75
2023-05-28T02:24:00,axn,27.61
2023-05-28T02:25:00,axn,27.27
2023-05-28T02:26:00,axn,26.68
2023-05-28T02:27:00,axn,26.99
2023-05-28T02:28:00,axn,27.01
2023-05-28T02:29:00,axn,25.08
2023-05-28T02:30:00,axn,25.09
2023-05-28T02:31:00,axn,25.27
2023-05-28T02:32:00,axn,25.01
2023-05-28T02:33:00,axn,25.02
2023-05-28T02:34:00,axn,24.92
2023-05-28T02:35:00,axn,25.11
2023-05-28T02:36:00,axn,25.25
2023-05-28T02:37:00,axn,25.11
2023-05-28T02:38:00,axn,25.16
2023-05-28T02:39:00,axn,24.91
2023-05-28T02:40:00,axn,24.86
2023-05-28T02:41:00,axn,24.87
2023-05-28T02:42:00,axn,24.83
2023-05-28T02:43:00,axn,25.08
2023-05-28T02:44:00,axn,24.92
2023-05-28T02:45:00,axn,25.04
2023-05-28T02:46:00,axn,27.73
2023-05-28T02:47:00,axn,27.76
2023-05-28T02:48:00,axn,27.57
2023-05-28T02:49:00,axn,25.01
2023-05-28T02:50:00,axn,24.93
2023-05-28T02:51:00,axn,25.04
2023-05-28T02:52:00,axn,25.09
2023-05-28T02:53:00,axn,24.96
2023-05-28T02:54:00,axn,24.80
2023-05-28T02:55:00,axn,25.27
2023-05-28T02:56:00,axn,25.29
2023-05-28T02:57:00,axn,29.46
2023-05-28T02:58:00,axn,29.56
2023-05-28T02:59:00,axn,28.52
2023-05-28T03:00:00,axn,23.94
2023-05-28T03:01:00,axn,24.15
2023-05-28T03:02:00,axn,23.95
2023-05-28T03:03:00,axn,23.89
2023-05-28T03:04:00,axn,24.02
2023-05-28T03:05:00,axn,23.97
2023-05-28T03:06:00,axn,23.98
2023-05-28T03:07:00,axn,23.98
2023-05-28T03:08:00,axn,24.12
2023-05-28T03:09:00,axn,24.11
2023-05-28T03:10:00,axn,24.16
2023-05-28T03:11:00,axn,24.29
2023-05-28T03:12:00,axn,24.22
2023-05-28T03:13:00,axn,24.38
2023-05-28T03:14:00,axn,24.70
2023-05-28T03:15:00,axn,24.24
2023-05-28T03:16:00,axn,24.14
2023-05-28T03:17:00,axn,24.36
2023-05-28T03:18:00,axn,24.36
2023-05-28T03:19:00,axn,24.15
2023-05-28T03:20:00,axn,24.27
2023-05-28T03:21:00,axn,24.28
2023-05-28T03:22:00,axn,24.31
2023-05-28T03:23:00,axn,24.25
2023-05-28T03:24:00,axn,24.16
2023-05-28T03:25:00,axn,27.13
2023-05-28T03:26:00,axn,27.08
2023-05-28T03:27:00,axn,24.10
2023-05-28T03:28:00,axn,24.27
2023-05-28T03:29:00,axn,24.15
2023-05-28T03:30:00,axn,24.46
2023-05-28T03:31:00,axn,24.31
2023-05-28T03:32:00,axn,24.22
2023-05-28T03:33:00,axn,23.98
2023-05-28T03:34:00,axn,24.17
2023-05-28T03:35:00,axn,24.60
2023-05-28T03:36:00,axn,24.14
2023-05-28T03:37:00,axn,24.20
2023-05-28T03:38:00,axn,24.12
2023-05-28T03:39:00,axn,24.12
2023-05-28T03:40:00,axn,24.73
2023-05-28T03:41:00,axn,24.15
2023-05-28T03:42:00,axn,24.31
2023-05-28T03:43:00,axn,24.24
2023-05-28T03:44:00,axn,24.03
2023-05-28T03:45:00,axn,24.14
2023-05-28T03:46:00,axn,24.04
2023-05-28T03:47:00,axn,24.18
2023-05-28T03:48:00,axn,24.16
2023-05-28T03:49:00,axn,24.18
2023-05-28T03:50:00,axn,24.26
2023-05-28T03:51:00,axn,24.51
2023-05-28T03:52:00,axn,24.87
2023-05-28T03:53:00,axn,24.21
2023-05-28T03:54:00,axn,24.60
2023-05-28T03:55:00,axn,24.46
2023-05-28T03:56:00,axn,24.41
2023-05-28T03:57:00,axn,24.18
2023-05-28T03:58:00,axn,24.53
2023-05-28T03:59:00,axn,24.10
2023-05-28T04:00:00,axn,24.39
2023-05-28T04:01:00,axn,24.23
2023-05-28T04:02:00,axn,23.96
2023-05-28T04:03:00,axn,23.95
2023-05-28T04:04:00,axn,24.03
2023-05-28T04:05:00,axn,24.32
2023-05-28T04:06:00,axn,23.94
2023-05-28T04:07:00,axn,24.21
2023-05-28T04:08:00,axn,24.01
2023-05-28T04:09:00,axn,24.09
2023-05-28T04:10:00,axn,23.93
2023-05-28T04:11:00,axn,24.12
2023-05-28T04:12:00,axn,24.33
2023-05-28T04:13:00,axn,24.27
2023-05-28T04:14:00,axn,24.04
2023-05-28T04:15:00,axn,24.05
2023-05-28T04:16:00,axn,30.23
2023-05-28T04:17:00,axn,30.54
2023-05-28T04:18:00,axn,30.39
2023-05-28T04:19:00,axn,24.56
2023-05-28T04:20:00,axn,24.29
2023-05-28T04:21:00,axn,24.08
2023-05-28T04:22:00,axn,24.14
2023-05-28T04:23:00,axn,24.29
2023-05-28T04:24:00,axn,24.29
2023-05-28T04:25:00,axn,24.69
2023-05-28T04:26:00,axn,24.25
2023-05-28T04:27:00,axn,24.42
2023-05-28T04:28:00,axn,24.35
2023-05-28T04:29:00,axn,24.12
2023-05-28T04:30:00,axn,24.35
2023-05-28T04:31:00,axn,24.16
2023-05-28T04:32:00,axn,24.08
2023-05-28T04:33:00,axn,24.30
2023-05-28T04:34:00,axn,24.41
2023-05-28T04:35:00,axn,24.00
2023-05-28T04:36:00,axn,24.07
2023-05-28T04:37:00,axn,24.34
2023-05-28T04:38:00,axn,24.46
2023-05-28T04:39:00,axn,24.37
2023-05-28T04:40:00,axn,24.49
2023-05-28T04:41:00,axn,24.55
2023-05-28T04:42:00,axn,24.54
2023-05-28T04:43:00,axn,24.62
2023-05-28T04:44:00,axn,24.39
2023-05-28T04:45:00,axn,24.83
2023-05-28T04:46:00,axn,24.61
2023-05-28T04:47:00,axn,24.60
2023-05-28T04:48:00,axn,24.51
2023-05-28T04:49:00,axn,24.69
2023-05-28T04:50:00,axn,24.63
2023-05-28T04:51:00,axn,24.42
2023-05-28T04:52:00,axn,24.49
2023-05-28T04:53:00,axn,24.74
2023-05-28T04:54:00,axn,24.69
2023-05-28T04:55:00,axn,24.78
2023-05-28T04:56:00,axn,24.52
2023-05-28T04:57:00,axn,24.35
2023-05-28T04:58:00,axn,24.47
2023-05-28T04:59:00,axn,24.69
2023-05-28T05:00:00,axn,24.80
2023-05-28T05:01:00,axn,24.19
2023-05-28T05:02:00,axn,24.15
2023-05-28T05:03:00,axn,41.64
2023-05-28T05:04:00,axn,23.91
2023-05-28T05:05:00,axn,24.04
2023-05-28T05:06:00,axn,24.03
2023-05-28T05:07:00,axn,24.10
2023-05-28T05:08:00,axn,24.03
2023-05-28T05:09:00,axn,23.94
2023-05-28T05:10:00,axn,23.93
2023-05-28T05:11:00,axn,24.04
2023-05-28T05:12:00,axn,23.93
2023-05-28T05:13:00,axn,24.57
2023-05-28T05:14:00,axn,25.03
2023-05-28T05:15:00,axn,24.15
2023-05-28T05:16:00,axn,24.20
2023-05-28T05:17:00,axn,24.36
2023-05-28T05:18:00,axn,24.84
2023-05-28T05:19:00,axn,24.98
2023-05-28T05:20:00,axn,25.07
2023-05-28T05:21:00,axn,24.90
2023-05-28T05:22:00,axn,27.07
2023-05-28T05:23:00,axn,27.05
2023-05-28T05:24:00,axn,26.82
2023-05-28T05:25:00,axn,26.84
2023-05-28T05:26:00,axn,26.82
2023-05-28T05:27:00,axn,26.85
2023-05-28T05:28:00,axn,26.87
2023-05-28T05:29:00,axn,27.14
2023-05-28T05:30:00,axn,26.80
2023-05-28T05:31:00,axn,30.00
2023-05-28T05:32:00,axn,29.78
2023-05-28T05:33:00,axn,29.99
2023-05-28T05:34:00,axn,30.16
2023-05-28T05:35:00,axn,29.62
2023-05-28T05:36:00,axn,30.09
2023-05-28T05:37:00,axn,29.73
2023-05-28T05:38:00,axn,29.82
2023-05-28T05:39:00,axn,30.15
2023-05-28T05:40:00,axn,29.78
2023-05-28T05:41:00,axn,29.82
2023-05-28T05:42:00,axn,30.03
2023-05-28T05:43:00,axn,30.35
2023-05-28T05:44:00,axn,29.92
2023-05-28T05:45:00,axn,30.04
2023-05-28T05:46:00,axn,29.98
2023-05-28T05:47:00,axn,30.11
2023-05-28T05:48:00,axn,30.09
2023-05-28T05:49:00,axn,30.09
2023-05-28T05:50:00,axn,30.06
2023-05-28T05:51:00,axn,30.01
2023-05-28T05:52:00,axn,30.00
2023-05-28T05:53:00,axn,30.34
2023-05-28T05:54:00,axn,30.13
2023-05-28T05:55:00,axn,30.15
2023-05-28T05:56:00,axn,44.98
2023-05-28T05:57:00,axn,46.37
2023-05-28T05:58:00,axn,30.01
2023-05-28T05:59:00,axn,44.39
2023-05-28T06:00:00,axn,44.02
2023-05-28T06:01:00,axn,29.58
2023-05-28T06:02:00,axn,43.51
2023-05-28T06:03:00,axn,43.48
2023-05-28T06:04:00,axn,29.38
2023-05-28T06:05:00,axn,29.33
2023-05-28T06:06:00,axn,29.38
2023-05-28T06:07:00,axn,29.20
2023-05-28T06:08:00,axn,29.81
2023-05-28T06:09:00,axn,29.16
2023-05-28T06:10:00,axn,29.46
2023-05-28T06:11:00,axn,29.24
2023-05-28T06:12:00,axn,29.14
2023-05-28T06:13:00,axn,29.21
2023-05-28T06:14:00,axn,45.86
2023-05-28T06:15:00,axn,32.91
2023-05-28T06:16:00,axn,32.09
2023-05-28T06:17:00,axn,31.69
2023-05-28T06:18:00,axn,29.36
2023-05-28T06:19:00,axn,29.01
2023-05-28T06:20:00,axn,28.92
2023-05-28T06:21:00,axn,28.97
2023-05-28T06:22:00,axn,29.06
2023-05-28T06:23:00,axn,29.23
2023-05-28T06:24:00,axn,28.90
2023-05-28T06:25:00,axn,28.95
2023-05-28T06:26:00,axn,28.86
2023-05-28T06:27:00,axn,29.00
2023-05-28T06:28:00,axn,28.99
2023-05-28T06:29:00,axn,29.18
2023-05-28T06:30:00,axn,29.17
2023-05-28T06:31:00,axn,29.37
2023-05-28T06:32:00,axn,29.24
2023-05-28T06:33:00,axn,29.18
2023-05-28T06:34:00,axn,29.06
2023-05-28T06:35:00,axn,29.24
2023-05-28T06:36:00,axn,29.03
2023-05-28T06:37:00,axn,29.05
2023-05-28T06:38:00,axn,28.94
2023-05-28T06:39:00,axn,28.96
2023-05-28T06:40:00,axn,28.95
2023-05-28T06:41:00,axn,28.85
2023-05-28T06:42:00,axn,29.07
2023-05-28T06:43:00,axn,45.77
2023-05-28T06:44:00,axn,28.93
2023-05-28T06:45:00,axn,28.97
2023-05-28T06:46:00,axn,28.89
2023-05-28T06:47:00,axn,29.14
2023-05-28T06:48:00,axn,28.65
2023-05-28T06:49:00,axn,28.88
2023-05-28T06:50:00,axn,28.70
2023-05-28T06:51:00,axn,28.84
2023-05-28T06:52:00,axn,28.94
2023-05-28T06:53:00,axn,28.71
2023-05-28T06:54:00,axn,29.18
2023-05-28T06:55:00,axn,28.82
2023-05-28T06:56:00,axn,28.99
2023-05-28T06:57:00,axn,28.76
2023-05-28T06:58:00,axn,28.66
2023-05-28T06:59:00,axn,28.73
2023-05-28T07:00:00,axn,28.80
2023-05-28T07:01:00,axn,33.21
2023-05-28T07:02:00,axn,34.51
2023-05-28T07:03:00,axn,35.76
2023-05-28T07:04:00,axn,35.99
2023-05-28T07:05:00,axn,35.51
2023-05-28T07:06:00,axn,36.16
2023-05-28T07:07:00,axn,35.51
2023-05-28T07:08:00,axn,35.00
2023-05-28T07:09:00,axn,34.79
2023-05-28T07:10:00,axn,34.65
2023-05-28T07:11:00,axn,34.69
2023-05-28T07:12:00,axn,34.76
2023-05-28T07:13:00,axn,34.59
2023-05-28T07:14:00,axn,34.65
2023-05-28T07:15:00,axn,34.46
2023-05-28T07:16:00,axn,34.99
2023-05-28T07:17:00,axn,37.41
2023-05-28T07:18:00,axn,34.61
2023-05-28T07:19:00,axn,34.08
2023-05-28T07:20:00,axn,33.91
2023-05-28T07:21:00,axn,34.06
2023-05-28T07:22:00,axn,33.91
2023-05-28T07:23:00,axn,33.94
2023-05-28T07:24:00,axn,34.06
2023-05-28T07:25:00,axn,44.62
2023-05-28T07:26:00,axn,44.46
2023-05-28T07:27:00,axn,44.27
2023-05-28T07:28:00,axn,44.43
2023-05-28T07:29:00,axn,34.03
2023-05-28T07:30:00,axn,33.98
2023-05-28T07:31:00,axn,34.27
2023-05-28T07:32:00,axn,33.85
2023-05-28T07:33:00,axn,34.19
2023-05-28T07:34:00,axn,41.71
2023-05-28T07:35:00,axn,34.58
2023-05-28T07:36:00,axn,35.12
2023-05-28T07:37:00,axn,34.67
2023-05-28T07:38:00,axn,34.64
2023-05-28T07:39:00,axn,35.14
2023-05-28T07:40:00,axn,35.50
2023-05-28T07:41:00,axn,35.20
2023-05-28T07:42:00,axn,35.20
2023-05-28T07:43:00,axn,35.23
2023-05-28T07:44:00,axn,35.11
2023-05-28T07:45:00,axn,35.12
2023-05-28T07:46:00,axn,35.16
2023-05-28T07:47:00,axn,35.34
2023-05-28T07:48:00,axn,34.78
2023-05-28T07:49:00,axn,35.06
2023-05-28T07:50:00,axn,34.73
2023-05-28T07:51:00,axn,35.00
2023-05-28T07:52:00,axn,34.79
2023-05-28T07:53:00,axn,34.74
2023-05-28T07:54:00,axn,34.94
2023-05-28T07:55:00,axn,34.88
2023-05-28T07:56:00,axn,34.65
2023-05-28T07:57:00,axn,35.07
2023-05-28T07:58:00,axn,35.01
2023-05-28T07:59:00,axn,35.16
2023-05-28T08:00:00,axn,35.22
2023-05-28T08:01:00,axn,35.13
2023-05-28T08:02:00,axn,35.38
2023-05-28T08:03:00,axn,35.88
2023-05-28T08:04:00,axn,35.50
2023-05-28T08:05:00,axn,35.25
2023-05-28T08:06:00,axn,35.45
2023-05-28T08:07:00,axn,36.18
2023-05-28T08:08:00,axn,36.28
2023-05-28T08:09:00,axn,35.48
2023-05-28T08:10:00,axn,34.97
2023-05-28T08:11:00,axn,35.37
2023-05-28T08:12:00,axn,35.48
2023-05-28T08:13:00,axn,35.49
2023-05-28T08:14:00,axn,35.42
2023-05-28T08:15:00,axn,35.26
2023-05-28T08:16:00,axn,35.58
2023-05-28T08:17:00,axn,35.36
2023-05-28T08:18:00,axn,35.45
2023-05-28T08:19:00,axn,35.38
2023-05-28T08:20:00,axn,34.99
2023-05-28T08:21:00,axn,34.84
2023-05-28T08:22:00,axn,35.10
2023-05-28T08:23:00,axn,35.27
2023-05-28T08:24:00,axn,35.53
2023-05-28T08:25:00,axn,34.95
2023-05-28T08:26:00,axn,34.80
2023-05-28T08:27:00,axn,34.75
2023-05-28T08:28:00,axn,34.84
2023-05-28T08:29:00,axn,34.29
2023-05-28T08:30:00,axn,34.38
2023-05-28T08:31:00,axn,34.54
2023-05-28T08:32:00,axn,34.43
2023-05-28T08:33:00,axn,34.44
2023-05-28T08:34:00,axn,34.27
2023-05-28T08:35:00,axn,34.78
2023-05-28T08:36:00,axn,34.75
2023-05-28T08:37:00,axn,34.65
2023-05-28T08:38:00,axn,34.78
2023-05-28T08:39:00,axn,35.00
2023-05-28T08:40:00,axn,35.37
2023-05-28T08:41:00,axn,35.13
2023-05-28T08:42:00,axn,35.16
2023-05-28T08:43:00,axn,35.17
2023-05-28T08:44:00,axn,35.00
2023-05-28T08:45:00,axn,34.95
2023-05-28T08:46:00,axn,34.58
2023-05-28T08:47:00,axn,34.31
2023-05-28T08:48:00,axn,33.98
2023-05-28T08:49:00,axn,33.95
2023-05-28T08:50:00,axn,33.95
2023-05-28T08:51:00,axn,34.22
2023-05-28T08:52:00,axn,33.98
2023-05-28T08:53:00,axn,34.30
2023-05-28T08:54:00,axn,34.38
2023-05-28T08:55:00,axn,34.62
2023-05-28T08:56:00,axn,34.19
2023-05-28T08:57:00,axn,34.13
2023-05-28T08:58:00,axn,34.53
2023-05-28T08:59:00,axn,34.55
2023-05-28T09:00:00,axn,35.31
2023-05-28T09:01:00,axn,35.84
2023-05-28T09:02:00,axn,35.66
2023-05-28T09:03:00,axn,35.74
2023-05-28T09:04:00,axn,35.27
2023-05-28T09:05:00,axn,34.88
2023-05-28T09:06:00,axn,34.95
2023-05-28T09:07:00,axn,34.70
2023-05-28T09:08:00,axn,34.77
2023-05-28T09:09:00,axn,34.83
2023-05-28T09:10:00,axn,34.85
2023-05-28T09:11:00,axn,34.89
2023-05-28T09:12:00,axn,35.03
2023-05-28T09:13:00,axn,35.05
2023-05-28T09:14:00,axn,34.69
2023-05-28T09:15:00,axn,34.80
2023-05-28T09:16:00,axn,34.89
2023-05-28T09:17:00,axn,34.76
2023-05-28T09:18:00,axn,34.71
2023-05-28T09:19:00,axn,34.53
2023-05-28T09:20:00,axn,34.59
2023-05-28T09:21:00,axn,34.30
2023-05-28T09:22:00,axn,34.33
2023-05-28T09:23:00,axn,34.29
2023-05-28T09:24:00,axn,35.14
2023-05-28T09:25:00,axn,34.86
2023-05-28T09:26:00,axn,34.81
2023-05-28T09:27:00,axn,34.67
2023-05-28T09:28:00,axn,34.65
2023-05-28T09:29:00,axn,34.61
2023-05-28T09:30:00,axn,37.55
2023-05-28T09:31:00,axn,40.03
2023-05-28T09:32:00,axn,37.28
2023-05-28T09:33:00,axn,37.23
2023-05-28T09:34:00,axn,37.15
2023-05-28T09:35:00,axn,34.32
2023-05-28T09:36:00,axn,34.28
2023-05-28T09:37:00,axn,34.23
2023-05-28T09:38:00,axn,34.31
2023-05-28T09:39:00,axn,34.78
2023-05-28T09:40:00,axn,34.52
2023-05-28T09:41:00,axn,34.86
2023-05-28T09:42:00,axn,34.31
2023-05-28T09:43:00,axn,34.34
2023-05-28T09:44:00,axn,34.29
2023-05-28T09:45:00,axn,34.50
2023-05-28T09:46:00,axn,34.13
2023-05-28T09:47:00,axn,34.46
2023-05-28T09:48:00,axn,34.62
2023-05-28T09:49:00,axn,34.21
2023-05-28T09:50:00,axn,33.38
2023-05-28T09:51:00,axn,33.48
2023-05-28T09:52:00,axn,33.52
2023-05-28T09:53:00,axn,33.46
2023-05-28T09:54:00,axn,33.35
2023-05-28T09:55:00,axn,33.32
2023-05-28T09:56:00,axn,33.41
2023-05-28T09:57:00,axn,33.40
2023-05-28T09:58:00,axn,33.39
2023-05-28T09:59:00,axn,33.33
2023-05-28T10:00:00,axn,33.37
2023-05-28T10:01:00,axn,33.38
2023-05-28T10:02:00,axn,33.06
2023-05-28T10:03:00,axn,33.38
2023-05-28T10:04:00,axn,33.40
2023-05-28T10:05:00,axn,33.05
2023-05-28T10:06:00,axn,33.24
2023-05-28T10:07:00,axn,33.22
2023-05-28T10:08:00,axn,33.17
2023-05-28T10:09:00,axn,33.06
2023-05-28T10:10:00,axn,33.27
2023-05-28T10:11:00,axn,32.93
2023-05-28T10:12:00,axn,32.78
2023-05-28T10:13:00,axn,33.11
2023-05-28T10:14:00,axn,33.23
2023-05-28T10:15:00,axn,33.03
2023-05-28T10:16:00,axn,33.10
2023-05-28T10:17:00,axn,32.95
2023-05-28T10:18:00,axn,33.86
2023-05-28T10:19:00,axn,32.92
2023-05-28T10:20:00,axn,37.51
2023-05-28T10:21:00,axn,37.55
2023-05-28T10:22:00,axn,37.80
2023-05-28T10:23:00,axn,33.06
2023-05-28T10:24:00,axn,32.97
2023-05-28T10:25:00,axn,33.09
2023-05-28T10:26:00,axn,32.96
2023-05-28T10:27:00,axn,50.66
2023-05-28T10:28:00,axn,32.93
2023-05-28T10:29:00,axn,47.18
2023-05-28T10:30:00,axn,47.41
2023-05-28T10:31:00,axn,47.32
2023-05-28T10:32:00,axn,47.12
2023-05-28T10:33:00,axn,47.00
2023-05-28T10:34:00,axn,33.61
2023-05-28T10:35:00,axn,33.50
2023-05-28T10:36:00,axn,33.07
2023-05-28T10:37:00,axn,32.98
2023-05-28T10:38:00,axn,33.03
2023-05-28T10:39:00,axn,33.38
2023-05-28T10:40:00,axn,33.59
2023-05-28T10:41:00,axn,33.45
2023-05-28T10:42:00,axn,33.04
2023-05-28T10:43:00,axn,32.94
2023-05-28T10:44:00,axn,33.21
2023-05-28T10:45:00,axn,33.26
2023-05-28T10:46:00,axn,33.30
2023-05-28T10:47:00,axn,33.08
2023-05-28T10:48:00,axn,33.22
2023-05-28T10:49:00,axn,33.04
2023-05-28T10:50:00,axn,33.16
2023-05-28T10:51:00,axn,33.19
2023-05-28T10:52:00,axn,33.48
2023-05-28T10:53:00,axn,32.42
2023-05-28T10:54:00,axn,32.43
2023-05-28T10:55:00,axn,32.23
2023-05-28T10:56:00,axn,32.28
2023-05-28T10:57:00,axn,32.70
2023-05-28T10:58:00,axn,32.54
2023-05-28T10:59:00,axn,32.76
2023-05-28T11:00:00,axn,32.46
2023-05-28T11:01:00,axn,32.47
2023-05-28T11:02:00,axn,32.39
2023-05-28T11:03:00,axn,32.66
2023-05-28T11:04:00,axn,32.66
2023-05-28T11:05:00,axn,33.24
2023-05-28T11:06:00,axn,32.58
2023-05-28T11:07:00,axn,32.88
2023-05-28T11:08:00,axn,32.48
2023-05-28T11:09:00,axn,32.43
2023-05-28T11:10:00,axn,32.46
2023-05-28T11:11:00,axn,35.26
2023-05-28T11:12:00,axn,35.40
2023-05-28T11:13:00,axn,35.51
2023-05-28T11:14:00,axn,32.79
2023-05-28T11:15:00,axn,32.73
2023-05-28T11:16:00,axn,32.75
2023-05-28T11:17:00,axn,32.97
2023-05-28T11:18:00,axn,32.75
2023-05-28T11:19:00,axn,32.83
2023-05-28T11:20:00,axn,32.84
2023-05-28T11:21:00,axn,32.72
2023-05-28T11:22:00,axn,32.73
2023-05-28T11:23:00,axn,32.77
2023-05-28T11:24:00,axn,32.70
2023-05-28T11:25:00,axn,32.80
2023-05-28T11:26:00,axn,32.86
2023-05-28T11:27:00,axn,32.81
2023-05-28T11:28:00,axn,32.91
2023-05-28T11:29:00,axn,32.83
2023-05-28T11:30:00,axn,32.82
2023-05-28T11:31:00,axn,32.90
2023-05-28T11:32:00,axn,33.02
2023-05-28T11:33:00,axn,32.89
2023-05-28T11:34:00,axn,33.08
2023-05-28T11:35:00,axn,33.09
2023-05-28T11:36:00,axn,32.79
2023-05-28T11:37:00,axn,32.71
2023-05-28T11:38:00,axn,32.77
2023-05-28T11:39:00,axn,32.73
2023-05-28T11:40:00,axn,32.49
2023-05-28T11:41:00,axn,32.63
2023-05-28T11:42:00,axn,32.90
2023-05-28T11:43:00,axn,32.38
2023-05-28T11:44:00,axn,32.33
2023-05-28T11:45:00,axn,32.52
2023-05-28T11:46:00,axn,32.19
2023-05-28T11:47:00,axn,32.34
2023-05-28T11:48:00,axn,32.13
2023-05-28T11:49:00,axn,32.06
2023-05-28T11:50:00,axn,32.62
2023-05-28T11:51:00,axn,31.93
2023-05-28T11:52:00,axn,32.24
2023-05-28T11:53:00,axn,31.96
2023-05-28T11:54:00,axn,32.56
2023-05-28T11:55:00,axn,31.99
2023-05-28T11:56:00,axn,31.92
2023-05-28T11:57:00,axn,31.90
2023-05-28T11:58:00,axn,31.69
2023-05-28T11:59:00,axn,31.86
2023-05-28T12:00:00,axn,37.66
2023-05-28T12:01:00,axn,41.01
2023-05-28T12:02:00,axn,40.73
2023-05-28T12:03:00,axn,38.21
2023-05-28T12:04:00,axn,32.39
2023-05-28T12:05:00,axn,32.52
2023-05-28T12:06:00,axn,32.38
2023-05-28T12:07:00,axn,32.37
2023-05-28T12:08:00,axn,32.48
2023-05-28T12:09:00,axn,32.80
2023-05-28T12:10:00,axn,32.40
2023-05-28T12:11:00,axn,32.55
2023-05-28T12:12:00,axn,32.70
2023-05-28T12:13:00,axn,32.44
2023-05-28T12:14:00,axn,32.45
2023-05-28T12:15:00,axn,32.57
2023-05-28T12:16:00,axn,32.55
2023-05-28T12:17:00,axn,32.37
2023-05-28T12:18:00,axn,32.35
2023-05-28T12:19:00,axn,33.02
2023-05-28T12:20:00,axn,32.48
2023-05-28T12:21:00,axn,32.40
2023-05-28T12:22:00,axn,32.18
2023-05-28T12:23:00,axn,32.31
2023-05-28T12:24:00,axn,32.37
2023-05-28T12:25:00,axn,32.33
2023-05-28T12:26:00,axn,32.19
2023-05-28T12:27:00,axn,32.17
2023-05-28T12:28:00,axn,32.06
2023-05-28T12:29:00,axn,32.28
2023-05-28T12:30:00,axn,32.18
2023-05-28T12:31:00,axn,32.27
2023-05-28T12:32:00,axn,32.19
2023-05-28T12:33:00,axn,32.28
2023-05-28T12:34:00,axn,32.48
2023-05-28T12:35:00,axn,32.25
2023-05-28T12:36:00,axn,32.24
2023-05-28T12:37:00,axn,32.55
2023-05-28T12:38:00,axn,32.51
2023-05-28T12:39:00,axn,32.72
2023-05-28T12:40:00,axn,32.92
2023-05-28T12:41:00,axn,32.42
2023-05-28T12:42:00,axn,32.60
2023-05-28T12:43:00,axn,32.48
2023-05-28T12:44:00,axn,32.68
2023-05-28T12:45:00,axn,31.99
2023-05-28T12:46:00,axn,32.07
2023-05-28T12:47:00,axn,31.93
2023-05-28T12:48:00,axn,31.85
2023-05-28T12:49:00,axn,31.52
2023-05-28T12:50:00,axn,31.77
2023-05-28T12:51:00,axn,31.79
2023-05-28T12:52:00,axn,31.52
2023-05-28T12:53:00,axn,31.65
2023-05-28T12:54:00,axn,31.47
2023-05-28T12:55:00,axn,31.53
2023-05-28T12:56:00,axn,31.73
2023-05-28T12:57:00,axn,31.48
2023-05-28T12:58:00,axn,31.32
2023-05-28T12:59:00,axn,31.44
2023-05-28T13:00:00,axn,31.60
2023-05-28T13:01:00,axn,31.72
2023-05-28T13:02:00,axn,31.79
2023-05-28T13:03:00,axn,31.88
2023-05-28T13:04:00,axn,34.03
2023-05-28T13:05:00,axn,33.63
2023-05-28T13:06:00,axn,33.78
2023-05-28T13:07:00,axn,33.80
2023-05-28T13:08:00,axn,39.07
2023-05-28T13:09:00,axn,33.92
2023-05-28T13:10:00,axn,33.84
2023-05-28T13:11:00,axn,33.65
2023-05-28T13:12:00,axn,33.52
2023-05-28T13:13:00,axn,33.77
2023-05-28T13:14:00,axn,33.61
2023-05-28T13:15:00,axn,33.64
2023-05-28T13:16:00,axn,33.75
2023-05-28T13:17:00,axn,33.90
2023-05-28T13:18:00,axn,34.16